Back to catalog

THORAD AGENA D DEB

AliveLEO
NORAD 19150·DEBRIS·🇺🇸 United States

Launched Apr 8, 1970 from Vandenberg Space Force Base

Loading…

Next Passes (next 24 hours)

TLE

AgingSource: Space-Track

Epoch: Sep 12, 2026, 15:09 UTC

1 19150U 70025PS  26255.63154568  .00006734  00000-0  27815-2 0  9993
2 19150 100.3287 220.4986 0020256 283.5367  76.3551 14.27022666917874

Track THORAD AGENA D DEB in real time with AllMySat

Download on the App Store